Weather in Chernyy Otrog

Russia / Orenburg Oblast     51°53′04″N   56°00′03″E
temp.,
°C
wind,
m/s
gust,
m/s
humid.,
%
clouds,
%
prec.,
mm/h
press.,
hPa
HPBL,
m
23 october, sat
sat2323:00+10sw817560 0.0 1013587
02:00+9sw715590 0.0 1013448
05:00+8sw6146350 0.0 1014386
08:00+7sw51264100 0.0 1014312
11:00+10sw61159100 0.0 1016486
14:00+13wsw71057100 0.0 1017737
17:00+13sw61160100 0.0 1017665
20:00+10sw41271100 0.0 1018321
24 october, sun
sun2423:00+9sw377895 0.0 1018132
02:00+9s3478100 0.0 101777
05:00+9sse41078100 0.1 1015297
08:00+10s71487100 0.0 1014516
11:00+11ssw71475100 0.0 1013699
14:00+10wsw61192100 1.9 1014636
17:00+10sw5992100 3.4 1015480
20:00+9wsw3694100 0.6 1016162
25 october, mon
mon2523:00+7wnw2285100 0.6 101618
02:00+6nnw0081100 0.0 101610
05:00+5ne1184100 0.0 101510
08:00+6se0082100 0.0 101510
11:00+6wsw2379100 0.3 1015214
14:00+7wsw2368100 0.8 1014711
17:00+8wnw3562100 1.1 1014887
20:00+5wnw357075 0.1 1016108
26 october, tue
tue2623:00+3nw49805 0.1 1017233
02:00+2nnw5118970 0.0 1019502
05:00+2n6107724 0.0 1021686
08:000nnw510735 0.0 1024503
11:00+1n585898 0.0 1026550
14:00+4nnw45415 0.0 1026818
17:00+4nw344065 0.0 1026614
20:00+1wsw224692 0.0 102811
27 october, wed
wed2723:00+1wsw3650100 0.0 1028155
02:00+1sw385684 0.0 1028206
05:000sw4105991 0.0 1028257
08:00−1sw39647 0.0 1028211
11:00+3wsw595113 0.0 1028474
14:00+6wsw68435 0.0 1027817
17:00+6wsw594592 0.0 1026641
20:00+3sw4105798 0.0 1027226